Location: Rancho Santa Fe Post Office
(33.0184°N, 117.2026°W)
Time: 03:30:47
(UTC+00:00)

Cosmos 1726 Rocket - Pass Details

Date: 10 September 2024
Orbit: 599 x 624 km, 82.5° (Epoch: 06 October)

Event Time Altitude Azimuth Distance (km) Brightness Sun altitude
Exits shadow 12:36:19 - 201° (SSW) 2,755 6.6 -11.8°
Reaches altitude 10° 12:38:24 10° 207° (SSW) 1,937 5.7 -11.4°
Maximum altitude 12:42:28 42° 279° (W) 859 3.9 -10.6°
Drops below altitude 10° 12:46:36 10° 351° (N) 1,961 6.2 -9.7°
Sets 12:48:55 0° 359° (N) 2,873 7.1 -9.3°
